User: anonymous   Login
Location: Dodgeville, WI 53533, USA
(43.0344°N, 90.0900°W)
Time: 23:48:55
(UTC-06:00)
Language:

Tiangong - Orbit

View from above orbital plane
View from above orbital plane
View from above satellite
View from above satellite

Ground track
Ground track

The orbit data is extracted from the following two-line orbital elements,

1 48274U 21035A   22334.91172947  .00023243  00000-0  28876-3 0  9998
2 48274  41.4767 283.6403 0005575 343.4783 117.1856 15.59425641 90837
Epoch (UTC): 30 November 2022 21:52:53
Eccentricity: 0.0005575
inclination: 41.4767°
perigee height: 385 km
apogee height: 393 km
right ascension of ascending node: 283.6403°
argument of perigee: 343.4783°
revolutions per day: 15.59425641
mean anomaly at epoch: 117.1856°
orbit number at epoch: 9083

The dashed part of the orbit path shows where the satellite is in the earth's shadow,  

DLR